Laconia, New Hampshire, United States (03246)
Lat: 43.53N, Lon: 71.47W
Wx Zone: NHZ009
Local Info
Past Weather Observations for Thursday, March 26, 2015

NOTE: This archive is for the closest National Weather Service station to Laconia. Information may differ from the station used for current weather conditions.

Click here for Long-term Archive

Time Weather Temperature Dewpoint Humidity Pressure Winds Precip Visibility
23:55
Fair
37°F / 3°C 34°F / 1°C 87% 29.62 in
(1003 mb)
Calm 0.02 in
(0.51 mm)
23:35
Fair
37°F / 3°C 36°F / 2°C 93% 29.65 in
(1004 mb)
Calm 0.01 in
(0.25 mm)
23:15
Fair
37°F / 3°C 34°F / 1°C 87% 29.65 in
(1004 mb)
Calm 0.01 in
(0.25 mm)
22:55
Fair
37°F / 3°C 36°F / 2°C 93% 29.65 in
(1004 mb)
Calm 0.09 in
(2.29 mm)
22:35
Fair
37°F / 3°C 36°F / 2°C 93% 29.65 in
(1004 mb)
Calm 0.09 in
(2.29 mm)
22:15
Fair
37°F / 3°C 36°F / 2°C 93% 29.68 in
(1005 mb)
SW 4.6 mph
(SW 7 kph)
0.04 in
(1.02 mm)
21:55
Fair
39°F / 4°C 36°F / 2°C 87% 29.68 in
(1005 mb)
NW 5.8 mph
(NW 9 kph)
-
21:35
Overcast
39°F / 4°C 36°F / 2°C 87% 29.68 in
(1005 mb)
Calm -
21:15
Fair
39°F / 4°C 37°F / 3°C 93% 29.68 in
(1005 mb)
SSW 3.5 mph
(SSW 6 kph)
-
20:55
Overcast
39°F / 4°C 37°F / 3°C 93% 29.65 in
(1004 mb)
NW 4.6 mph
(NW 7 kph)
0.07 in
(1.78 mm)
20:35
Overcast
39°F / 4°C 36°F / 2°C 87% 29.68 in
(1005 mb)
Calm 0.07 in
(1.78 mm)
20:15
Overcast
39°F / 4°C 36°F / 2°C 87% 29.68 in
(1005 mb)
Calm 0.02 in
(0.51 mm)
19:55
Overcast
39°F / 4°C 37°F / 3°C 93% 29.68 in
(1005 mb)
Calm 0.09 in
(2.29 mm)
19:35
Fair
39°F / 4°C 37°F / 3°C 93% 29.65 in
(1004 mb)
Calm 0.05 in
(1.27 mm)
19:15
Overcast
39°F / 4°C 37°F / 3°C 93% 29.65 in
(1004 mb)
Calm 0.02 in
(0.51 mm)
18:55
Fair
39°F / 4°C 37°F / 3°C 93% 29.65 in
(1004 mb)
Calm 0.05 in
(1.27 mm)
18:35
Fair
39°F / 4°C 37°F / 3°C 93% 29.65 in
(1004 mb)
Calm 0.01 in
(0.25 mm)
18:15
Fair
39°F / 4°C 37°F / 3°C 93% 29.65 in
(1004 mb)
Calm 0.01 in
(0.25 mm)
17:55
Overcast
41°F / 5°C 37°F / 3°C 87% 29.65 in
(1004 mb)
Calm -
17:35
Overcast
43°F / 6°C 39°F / 4°C 87% 29.65 in
(1004 mb)
Calm -
17:15
Overcast
43°F / 6°C 37°F / 3°C 81% 29.65 in
(1004 mb)
Calm -
16:55
Fair
43°F / 6°C 39°F / 4°C 87% 29.65 in
(1004 mb)
Calm -
16:35
Fair
43°F / 6°C 39°F / 4°C 87% 29.65 in
(1004 mb)
Calm -
16:15
Fair
43°F / 6°C 39°F / 4°C 87% 29.65 in
(1004 mb)
SE 3.5 mph
(SE 6 kph)
-
15:55
Fair
45°F / 7°C 43°F / 6°C 93% 29.65 in
(1004 mb)
Calm 0.02 in
(0.51 mm)
15:35
Fair
45°F / 7°C 43°F / 6°C 93% 29.68 in
(1005 mb)
NW 4.6 mph
(NW 7 kph)
0.02 in
(0.51 mm)
15:15
Overcast
46°F / 8°C 43°F / 6°C 87% 29.68 in
(1005 mb)
Calm 0.01 in
(0.25 mm)
14:55
Fair
46°F / 8°C 43°F / 6°C 87% 29.71 in
(1006 mb)
Calm -
14:35
Fair
45°F / 7°C 43°F / 6°C 93% 29.68 in
(1005 mb)
Calm -
14:15
Fair
46°F / 8°C 43°F / 6°C 87% 29.71 in
(1006 mb)
Calm -
13:55
Overcast
45°F / 7°C 43°F / 6°C 93% 29.71 in
(1006 mb)
Calm 0.03 in
(0.76 mm)
13:35
Overcast
46°F / 8°C 41°F / 5°C 82% 29.71 in
(1006 mb)
Calm 0.03 in
(0.76 mm)
13:15
Overcast
46°F / 8°C 41°F / 5°C 82% 29.71 in
(1006 mb)
WNW 3.5 mph
(WNW 6 kph)
0.01 in
(0.25 mm)
12:55
Overcast
48°F / 9°C 39°F / 4°C 71% 29.71 in
(1006 mb)
Calm -
12:35
Overcast
48°F / 9°C 37°F / 3°C 66% 29.74 in
(1007 mb)
SW 3.5 mph
(SW 6 kph)
-
12:15
Overcast
48°F / 9°C 37°F / 3°C 66% 29.77 in
(1008 mb)
SW 15 mph
(SW 24 kph)
-
11:55
Overcast
50°F / 10°C 36°F / 2°C 58% 29.77 in
(1008 mb)
SW 11.5 mph
(SW 19 kph)
-
11:35
Mostly Cloudy
50°F / 10°C 36°F / 2°C 58% 29.77 in
(1008 mb)
SW 5.8 mph
(SW 9 kph)
-
11:15
Partly Cloudy
50°F / 10°C 37°F / 3°C 62% 29.77 in
(1008 mb)
SSW 5.8 mph
(SSW 9 kph)
-
10:55
Partly Cloudy
48°F / 9°C 36°F / 2°C 62% 29.77 in
(1008 mb)
SW 8.1 mph
(SW 13 kph)
-
10:35
Clear
48°F / 9°C 36°F / 2°C 62% 29.83 in
(1010 mb)
SSW 15 mph
(SSW 24 kph)
-
10:15
Partly Cloudy
48°F / 9°C 36°F / 2°C 62% 29.83 in
(1010 mb)
SW 11.5 mph
(SW 19 kph)
-
09:55
Partly Cloudy
46°F / 8°C 36°F / 2°C 66% 29.83 in
(1010 mb)
SW 12.7 mph
(SW 20 kph)
-
09:35
Clear
46°F / 8°C 36°F / 2°C 66% 29.83 in
(1010 mb)
SW 11.5 mph
(SW 19 kph)
-
09:15
Clear
45°F / 7°C 36°F / 2°C 71% 29.83 in
(1010 mb)
SW 10.4 mph
(SW 17 kph)
-
08:55
Clear
45°F / 7°C 36°F / 2°C 71% 29.86 in
(1011 mb)
SW 10.4 mph
(SW 17 kph)
-
08:35
Clear
43°F / 6°C 36°F / 2°C 76% 29.86 in
(1011 mb)
SW 11.5 mph
(SW 19 kph)
-
08:15
Fair
39°F / 4°C 36°F / 2°C 87% 29.86 in
(1011 mb)
SW 9.2 mph
(SW 15 kph)
-
07:55
Fair
39°F / 4°C 36°F / 2°C 87% 29.89 in
(1012 mb)
SSW 11.5 mph
(SSW 19 kph)
-
07:35
Mostly Cloudy
39°F / 4°C 36°F / 2°C 87% 29.89 in
(1012 mb)
SW 11.5 mph
(SW 19 kph)
-
07:15
Overcast
39°F / 4°C 36°F / 2°C 87% 29.89 in
(1012 mb)
SW 11.5 mph
(SW 19 kph)
-
06:55
Overcast
39°F / 4°C 36°F / 2°C 87% 29.89 in
(1012 mb)
SW 12.7 mph
(SW 20 kph)
-
06:35
Overcast
39°F / 4°C 36°F / 2°C 87% 29.92 in
(1013 mb)
SW 10.4 mph
(SW 17 kph)
-
06:15
Overcast
37°F / 3°C 34°F / 1°C 87% 29.89 in
(1012 mb)
SW 11.5 mph
(SW 19 kph)
-
05:55
Overcast
37°F / 3°C 34°F / 1°C 87% 29.92 in
(1013 mb)
SW 9.2 mph
(SW 15 kph)
-
05:35
Overcast
37°F / 3°C 34°F / 1°C 87% 29.92 in
(1013 mb)
SSW 8.1 mph
(SSW 13 kph)
-
05:15
Overcast
37°F / 3°C 34°F / 1°C 87% 29.92 in
(1013 mb)
SSW 10.4 mph
(SSW 17 kph)
-
04:55
Overcast
37°F / 3°C 34°F / 1°C 87% 29.92 in
(1013 mb)
SW 10.4 mph
(SW 17 kph)
-
04:35
Fair
37°F / 3°C 34°F / 1°C 87% 29.92 in
(1013 mb)
SW 9.2 mph
(SW 15 kph)
-
04:15
Mostly Cloudy
37°F / 3°C 34°F / 1°C 87% 29.92 in
(1013 mb)
SW 8.1 mph
(SW 13 kph)
-
03:55
Fair
37°F / 3°C 34°F / 1°C 87% 29.92 in
(1013 mb)
SW 11.5 mph
(SW 19 kph)
-
03:35
Overcast
37°F / 3°C 34°F / 1°C 87% 29.95 in
(1014 mb)
SW 12.7 mph
(SW 20 kph)
-
03:15
Fair
37°F / 3°C 34°F / 1°C 87% 29.95 in
(1014 mb)
SW 16.1 mph
(SW 26 kph)
-
02:55
Overcast
37°F / 3°C 34°F / 1°C 87% 29.95 in
(1014 mb)
SW 13.8 mph
(SW 22 kph)
-
02:35
Fair
37°F / 3°C 34°F / 1°C 87% 29.95 in
(1014 mb)
SW 12.7 mph
(SW 20 kph)
-
02:15
Overcast
37°F / 3°C 34°F / 1°C 87% 29.98 in
(1015 mb)
SW 15 mph
(SW 24 kph)
-
01:55
Overcast
37°F / 3°C 32°F / 0°C 81% 29.98 in
(1015 mb)
SW 16.1 mph
(SW 26 kph)
-
01:35
Overcast
37°F / 3°C 32°F / 0°C 81% 29.98 in
(1015 mb)
SW 15 mph
(SW 24 kph)
-
01:15
Overcast
37°F / 3°C 32°F / 0°C 81% 29.98 in
(1015 mb)
SSE 17.3 mph
(SSE 28 kph)
-
00:55
Overcast
37°F / 3°C 30°F / -1°C 75% 30.01 in
(1016 mb)
SW 18.4 mph
(SW 30 kph)
-
00:35
Overcast
37°F / 3°C 30°F / -1°C 75% 30.01 in
(1016 mb)
SW 18.4 mph
(SW 30 kph)
-
00:15
Overcast
36°F / 2°C 30°F / -1°C 81% 30.01 in
(1016 mb)
SW 18.4 mph
(SW 30 kph)
-
Time Weather Temperature Dewpoint Humidity Pressure Winds Precip Visibility


Weather for websites

WeatherForYou.com, LLC is not responsible for any damages or problems caused by this service. Current weather conditions are obtained from the closest station including government and personal stations which may have varying degrees of accuracy. Weather forecasts are derived from the NOAA NDFD. Like all things, this site belongs to Jesus Christ... He just trusts me to maintain it. If you have any questions or comments email webmaster@weatherforyou.com

Copyright © 2015, WeatherForYou.com LLC. All rights reserved.